Flag for Canada Weather past 2 weeks in Timmins, Ontario, Canada

Now
81 °F

Broken clouds.


Feels Like: 83 °F
Forecast: N/A
Wind: 12 mph from West

Location: Timmins

Current Time: Sep 1, 2015 at 4:37:39 PM

Latest Report: Sep 1, 2015 at 4:00 PM


Visibility: 15 mi

Pressure: 29.88 "Hg

Humidity: 66%

Dew point: 68 °F

Location of TimminsLocation

Historic Weather in Timmins — Graph

°F

Timmins temperature yesterday

Maximum temperature yesterday: 75 °F (at 3:00 PM)
Minimum temperature yesterday: 61 °F (at 4:00 AM)
Average temperature yesterday: 67 °F

Past Weeks' High & Low Weather Summary

 TemperatureHumidityPressure
High79 °F (Aug 19, 6:00 PM)100% (Aug 18, 1:00 PM)30.14 "Hg (Aug 18, 1:00 PM)
Low48 °F (Aug 22, 5:00 AM)47% (Aug 23, 4:00 PM)29.54 "Hg (Aug 20, 11:00 AM)
Average62 °F85%29.89 "Hg
* Reported Aug 17 2:00 PM — Sep 1 2:00 PM, Timmins, Weather by CustomWeather, © 2015

Note: Actual official high and low records may vary slightly from our data, if they occured in-between our weather recording intervals... More about our weather records

Advertising

Timmins weather history for previous 24 hours

 ConditionsComfort  
Time TempWeatherWind HumidityBarometerVisibility
2:00 PM
Tue, Sep 1
79 °FPartly sunny.12 mph70%29.89 "Hg15 mi
1:00 PM79 °FPartly sunny.10 mph70%29.89 "Hg12 mi
12:00 PM77 °FPartly sunny.9 mph74%29.89 "Hg12 mi
11:00 AM73 °FPartly sunny.13 mph78%29.90 "Hg10 mi
10:00 AM70 °FOvercast.6 mph88%29.91 "Hg10 mi
9:00 AM68 °FOvercast.8 mph88%29.92 "Hg10 mi
8:00 AM66 °FLow clouds.7 mph94%29.92 "Hg8 mi
7:00 AM64 °FMostly cloudy.7 mph94%29.90 "Hg8 mi
6:00 AM63 °FPassing clouds.5 mph94%29.90 "Hg15 mi
5:00 AM63 °FPassing clouds.6 mph94%29.89 "Hg15 mi
4:00 AM63 °FPassing clouds.8 mph100%29.89 "Hg15 mi
3:00 AM64 °FPassing clouds.6 mph94%29.89 "Hg15 mi
2:00 AM66 °FPassing clouds.8 mph94%29.89 "Hg15 mi
1:00 AM63 °FPassing clouds.7 mph100%29.90 "Hg15 mi
12:00 AM64 °FPassing clouds.5 mph94%29.91 "Hg15 mi
11:00 PM
Mon, Aug 31
66 °FPassing clouds.6 mph94%29.90 "Hg15 mi
10:00 PM64 °FPassing clouds.6 mph94%29.92 "Hg15 mi
9:00 PM66 °FScattered clouds.6 mph94%29.93 "Hg15 mi
8:00 PM68 °FPartly sunny.7 mph88%29.93 "Hg15 mi
7:00 PM72 °FScattered clouds.6 mph83%29.94 "Hg12 mi
6:00 PM73 °FScattered clouds.10 mph74%29.94 "Hg15 mi
5:00 PM75 °FScattered clouds.6 mph69%29.95 "Hg15 mi
4:00 PM75 °FPartly sunny.5 mph69%29.96 "Hg15 mi
Weather by CustomWeather, © 2015

See weather overviewHow to use our weather pages